| time (UTC) | temp F | wind direction | speed MPH | gust MPH | rain 1hr in | rain 24hr in | rain mn in | humidity % | barometer mb |
| 20260509232957 | 66 | 319 | 9.0 | 20.0 | 0.00 | 0.00 | 0.00 | 28 | 1007.8 |
| 20260509231458 | 67 | 327 | 13.0 | 21.0 | 0.00 | 0.00 | 0.00 | 27 | 1007.6 |
| 20260509225957 | 67 | 333 | 10.0 | 18.0 | 0.00 | 0.00 | 0.00 | 28 | 1007.4 |
| 20260509224457 | 68 | 321 | 9.0 | 21.0 | 0.00 | 0.00 | 0.00 | 29 | 1007.3 |
| 20260509221458 | 68 | 305 | 11.0 | 21.0 | 0.00 | 0.00 | 0.00 | 30 | 1006.9 |
| 20260509214457 | 69 | 321 | 9.0 | 24.0 | 0.00 | 0.00 | 0.00 | 29 | 1006.6 |
| 20260509212958 | 69 | 300 | 9.0 | 20.0 | 0.00 | 0.00 | 0.00 | 29 | 1006.2 |
| 20260509211457 | 70 | 291 | 9.0 | 23.0 | 0.00 | 0.00 | 0.00 | 31 | 1006.3 |
| 20260509205957 | 69 | 319 | 11.0 | 25.0 | 0.00 | 0.00 | 0.00 | 30 | 1006.1 |
| 20260509202957 | 70 | 311 | 13.0 | 21.0 | 0.00 | 0.00 | 0.00 | 30 | 1006.0 |
| 20260509201457 | 69 | 287 | 12.0 | 21.0 | 0.00 | 0.00 | 0.00 | 34 | 1005.8 |
| 20260509195957 | 69 | 289 | 13.0 | 22.0 | 0.00 | 0.00 | 0.00 | 35 | 1005.8 |
| 20260509194458 | 68 | 262 | 9.0 | 18.0 | 0.00 | 0.00 | 0.00 | 40 | 1006.0 |
| 20260509192957 | 66 | 297 | 12.0 | 20.0 | 0.00 | 0.00 | 0.00 | 42 | 1006.0 |
| 20260509191458 | 66 | 303 | 9.0 | 17.0 | 0.00 | 0.00 | 0.00 | 45 | 1005.7 |
| 20260509185957 | 65 | 285 | 5.0 | 18.0 | 0.00 | 0.00 | 0.00 | 46 | 1005.5 |
| 20260509184458 | 67 | 301 | 11.0 | 21.0 | 0.00 | 0.00 | 0.00 | 47 | 1005.5 |
| 20260509181457 | 66 | 293 | 14.0 | 21.0 | 0.00 | 0.00 | 0.00 | 46 | 1005.7 |
| 20260509175957 | 66 | 317 | 13.0 | 23.0 | 0.00 | 0.00 | 0.00 | 45 | 1005.4 |
| 20260509174458 | 67 | 319 | 12.0 | 20.0 | 0.00 | 0.00 | 0.00 | 43 | 1005.2 |
| 20260509172957 | 66 | 280 | 7.0 | 20.0 | 0.00 | 0.00 | 0.00 | 41 | 1005.2 |
| 20260509171457 | 66 | 291 | 7.0 | 14.0 | 0.00 | 0.00 | 0.00 | 39 | 1005.1 |
| 20260509165957 | 65 | 286 | 7.0 | 15.0 | 0.00 | 0.00 | 0.00 | 40 | 1004.9 |
| 20260509162958 | 65 | 300 | 5.0 | 15.0 | 0.00 | 0.00 | 0.00 | 38 | 1005.1 |
| 20260509161457 | 66 | 288 | 9.0 | 21.0 | 0.00 | 0.00 | 0.00 | 35 | 1005.4 |
| 20260509155958 | 67 | 311 | 11.0 | 20.0 | 0.00 | 0.00 | 0.00 | 33 | 1005.2 |
| 20260509154458 | 68 | 289 | 9.0 | 16.0 | 0.00 | 0.00 | 0.00 | 32 | 1004.8 |
| 20260509152957 | 68 | 296 | 8.0 | 16.0 | 0.00 | 0.00 | 0.00 | 32 | 1004.6 |
| 20260509151457 | 67 | 280 | 9.0 | 17.0 | 0.00 | 0.00 | 0.00 | 34 | 1004.6 |
| 20260509145957 | 67 | 313 | 7.0 | 18.0 | 0.00 | 0.00 | 0.00 | 35 | 1004.6 |
| 20260509142958 | 66 | 269 | 11.0 | 22.0 | 0.00 | 0.00 | 0.00 | 35 | 1004.6 |
| 20260509141458 | 66 | 302 | 9.0 | 17.0 | 0.00 | 0.00 | 0.00 | 36 | 1004.6 |
| 20260509135958 | 64 | 258 | 7.0 | 13.0 | 0.00 | 0.00 | 0.00 | 42 | 1004.3 |
| 20260509132957 | 60 | 253 | 3.0 | 8.0 | 0.00 | 0.00 | 0.00 | 50 | 1004.1 |
| 20260509131458 | 58 | 243 | 4.0 | 9.0 | 0.00 | 0.00 | 0.00 | 53 | 1003.9 |
| 20260509125957 | 56 | 241 | 3.0 | 5.0 | 0.00 | 0.00 | 0.00 | 60 | 1003.8 |
| 20260509124457 | 53 | 250 | 3.0 | 6.0 | 0.00 | 0.00 | 0.00 | 65 | 1003.7 |
| 20260509122958 | 51 | 233 | 2.0 | 3.0 | 0.00 | 0.00 | 0.00 | 71 | 1003.5 |
| 20260509121457 | 50 | 246 | 2.0 | 3.0 | 0.00 | 0.00 | 0.00 | 72 | 1003.4 |
| 20260509115958 | 49 | 232 | 1.0 | 3.0 | 0.00 | 0.00 | 0.00 | 75 | 1003.2 |
| 20260509114458 | 48 | 232 | 0.0 | 1.0 | 0.00 | 0.00 | 0.00 | 74 | 1003.0 |
| 20260509111458 | 47 | 238 | 2.0 | 3.0 | 0.00 | 0.00 | 0.00 | 73 | 1003.1 |
| 20260509105958 | 47 | 236 | 1.0 | 3.0 | 0.00 | 0.00 | 0.00 | 76 | 1003.0 |
| 20260509104458 | 48 | 246 | 0.0 | 2.0 | 0.00 | 0.00 | 0.00 | 76 | 1003.0 |
| 20260509102958 | 49 | 255 | 0.0 | 2.0 | 0.00 | 0.00 | 0.00 | 78 | 1002.9 |
| 20260509101459 | 49 | 302 | 1.0 | 3.0 | 0.00 | 0.00 | 0.00 | 79 | 1002.9 |
| 20260509095958 | 49 | 270 | 1.0 | 3.0 | 0.00 | 0.00 | 0.00 | 81 | 1003.0 |
| 20260509094458 | 49 | 258 | 0.0 | 0.0 | 0.00 | 0.00 | 0.00 | 81 | 1002.8 |
| 20260509084458 | 51 | 270 | 0.0 | 2.0 | 0.00 | 0.00 | 0.00 | 80 | 1002.8 |
| 20260509082958 | 52 | 317 | 1.0 | 2.0 | 0.00 | 0.00 | 0.00 | 80 | 1002.8 |
| 20260509081458 | 53 | 267 | 1.0 | 3.0 | 0.00 | 0.00 | 0.00 | 81 | 1002.8 |
| 20260509075958 | 53 | 282 | 1.0 | 3.0 | 0.00 | 0.00 | 0.00 | 81 | 1002.5 |
| 20260509074458 | 54 | 234 | 3.0 | 5.0 | 0.00 | 0.00 | 0.00 | 80 | 1002.5 |
| 20260509072959 | 54 | 180 | 0.0 | 1.0 | 0.00 | 0.00 | 0.00 | 79 | 1002.5 |
| 20260509071458 | 55 | 198 | 0.0 | 6.0 | 0.00 | 0.00 | 0.00 | 78 | 1002.6 |
| 20260509065958 | 56 | 228 | 2.0 | 7.0 | 0.00 | 0.00 | 0.00 | 77 | 1002.7 |
| 20260509064458 | 56 | 230 | 3.0 | 8.0 | 0.00 | 0.00 | 0.00 | 76 | 1002.8 |
| 20260509061458 | 57 | 223 | 3.0 | 8.0 | 0.00 | 0.00 | 0.00 | 73 | 1003.0 |
| 20260509055958 | 57 | 231 | 4.0 | 10.0 | 0.00 | 0.00 | 0.00 | 72 | 1003.1 |
| 20260509052958 | 58 | 235 | 4.0 | 7.0 | 0.00 | 0.00 | 0.00 | 69 | 1002.9 |
| 20260509051458 | 59 | 199 | 3.0 | 7.0 | 0.00 | 0.00 | 0.00 | 66 | 1002.8 |
| 20260509045958 | 59 | 185 | 3.0 | 7.0 | 0.00 | 0.00 | 0.00 | 64 | 1002.8 |
| 20260509042959 | 60 | 215 | 2.0 | 6.0 | 0.00 | 0.00 | 0.00 | 59 | 1002.8 |
| 20260509041458 | 61 | 175 | 3.0 | 6.0 | 0.00 | 0.00 | 0.00 | 56 | 1002.8 |
| 20260509034458 | 64 | 212 | 3.0 | 13.0 | 0.00 | 0.00 | 0.00 | 49 | 1003.1 |
| 20260509031458 | 66 | 198 | 4.0 | 13.0 | 0.00 | 0.00 | 0.00 | 36 | 1003.3 |
| 20260509025958 | 68 | 187 | 4.0 | 14.0 | 0.00 | 0.00 | 0.00 | 33 | 1003.2 |
| 20260509024458 | 67 | 237 | 7.0 | 16.0 | 0.00 | 0.00 | 0.00 | 32 | 1002.8 |
| 20260509022959 | 66 | 216 | 9.0 | 13.0 | 0.00 | 0.00 | 0.00 | 34 | 1002.7 |
| 20260509021458 | 66 | 202 | 2.0 | 14.0 | 0.00 | 0.00 | 0.00 | 34 | 1002.6 |
| 20260509015958 | 66 | 199 | 2.0 | 6.0 | 0.00 | 0.00 | 0.00 | 34 | 1002.4 |
| 20260509011458 | 67 | 185 | 3.0 | 6.0 | 0.00 | 0.00 | 0.00 | 32 | 1002.2 |
| 20260509005959 | 68 | 190 | 3.0 | 5.0 | 0.00 | 0.00 | 0.00 | 30 | 1002.3 |
| 20260509004459 | 69 | 191 | 1.0 | 5.0 | 0.00 | 0.00 | 0.00 | 30 | 1002.3 |
| 20260509002959 | 70 | 188 | 2.0 | 5.0 | 0.00 | 0.00 | 0.00 | 29 | 1002.3 |
| 20260509001458 | 71 | 195 | 2.0 | 8.0 | 0.00 | 0.00 | 0.00 | 27 | 1002.5 |
| 20260508235958 | 72 | 229 | 5.0 | 12.0 | 0.00 | 0.00 | 0.00 | 26 | 1002.5 |
| 20260508234459 | 73 | 233 | 3.0 | 12.0 | 0.00 | 0.00 | 0.00 | 24 | 1002.6 |